This demonstration page uses our WeatherBlox Daily Observations layout. Learn more.

Left ArrowRight Arrow

41.55636, -103.73856

Hourly Observations for April 10, 2018

Temp ( °F °C ) Dew Point ( °F °C ) Humidity (%) Winds ( mph kmh ) Pressure ( in mb ) Visibility ( mi km ) Precip ( " mm )
12:58 am 00:58 Clear 38 3.2 28 -2.4 67 67 S 6 9 30.23 1024 10 16 N/A
1:58 am 01:58 Clear 32 undefined 28 -2.5 83 83 WSW 5 7 30.23 1024 10 16 N/A
2:58 am 02:58 Clear 31 -0.3 27 -2.9 83 83 WSW 9 15 30.19 1022 10 16 N/A
3:58 am 03:58 Clear 29 -1.5 26 -3.6 86 86 WNW 15 24 30.19 1022 10 16 N/A
4:58 am 04:58 Clear 31 -0.8 25 -4.1 79 79 WNW 15 24 30.18 1022 10 16 N/A
5:58 am 05:58 Clear 32 0.1 24 -4.2 73 73 WNW 15 24 30.19 1022 10 16 N/A
6:58 am 06:58 Sunny 29 -1.4 24 -4.4 80 80 NW 8 13 30.24 1024 10 16 N/A
7:58 am 07:58 Sunny 42 5.4 26 -3.1 55 55 WNW 22 35 30.23 1024 10 16 N/A
8:58 am 08:58 Sunny 48 8.8 26 -3.5 42 42 WNW 23 37 30.21 1023 10 16 N/A
9:58 am 09:58 Sunny 52 11.3 24 -4.7 33 33 NW 24 39 30.19 1022 10 16 N/A
10:58 am 10:58 Sunny 56 13.4 22 -5.3 27 27 NW 24 39 30.18 1022 10 16 N/A
11:58 am 11:58 Sunny 60 15.6 20 -6.6 21 21 NW 25 41 30.12 1020 10 16 N/A
12:58 pm 12:58 Sunny 62 16.7 18 -7.6 18 18 WNW 22 35 30.07 1018 10 16 N/A
1:58 pm 13:58 Sunny 66 18.7 19 -7.3 16 16 WNW 18 30 30.03 1017 10 16 N/A
2:58 pm 14:58 Sunny 68 19.8 18 -7.7 15 15 NW 17 28 30.00 1016 10 16 N/A
3:58 pm 15:58 Sunny 69 20.5 18 -7.9 14 14 NW 20 31 29.98 1015 10 16 N/A
4:58 pm 16:58 Sunny 68 19.9 18 -7.8 15 15 NNW 16 26 29.97 1015 10 16 N/A
5:58 pm 17:58 Sunny 65 18.5 16 -8.8 15 15 NW 12 19 29.96 1015 10 16 N/A
6:58 pm 18:58 Sunny 60 15.6 22 -5.5 23 23 W 5 7 29.99 1016 10 16 N/A
7:58 pm 19:58 Clear 57 14.1 23 -5 26 26 WSW 6 9 29.95 1014 10 16 N/A
8:58 pm 20:58 Mostly Cloudy 54 12.4 25 -4.1 32 32 W 8 13 29.95 1014 10 16 N/A
9:58 pm 21:58 Mostly Cloudy 53 11.6 25 -3.8 34 34 WSW 10 17 29.92 1013 10 16 N/A
10:58 pm 22:58 Clear 48 8.8 26 -3.1 43 43 W 9 15 29.91 1013 10 16 N/A
11:58 pm 23:58 Mostly Clear 54 12.1 24 -4.4 32 32 W 15 24 29.85 1011 10 16 N/A

Powered by AerisWeather